CZ-6A DEB

Satellite information

Favourite Embed

Satellite Type and Status

DEBRISIN ORBIT

Key statistics

Satellite CZ-6A DEB at a glance.

Uptime

445

Days in orbit

Revolutions

≈ 14.2

Per day

Orbit

LEO

Low Earth Orbit

Inclination

89.1

Latest

Satellite identification and parameters

Extended collection of information and parameters for CZ-6A DEB.

Object identification

Identified? True

Debris? True

Object name: CZ-6A DEB

International designator: 2024-140FA

Object number (NORAD): 60775

Object ID (CCSDS): 60775

Country: PEOPLES REPUBLIC OF CHINA (PRC)

Current information (Y/N): Y

RCS size: SMALL

Orbital parameters

Period: 101.069 minutes

Inclination: 89.072 deg

SMA: 7187.426 km

Apoapsis: 829.035 km

Periapsis: 789.548 km

RAAN: 304.7553 deg

Eccentricy: 0.00274695

Argument of periapsis: 242.5404 deg

Mean anomaly: 117.2996 deg

Mean motion: 14.24763155 rev/day

Mean motion (dot): 0.00001625 rev/day2

B* drag term: 0.00068943855 1/REarth

Two-line elements (TLE)

Creation date: Oct. 25, 2025, 3:11 a.m.

Reference frame: TEME

Reference center: EARTH

Epoch: Oct. 24, 2025, 11:06 p.m. UTC

TLE line 0: 0 CZ-6A DEB

TLE line 1: 1 60775U 24140FA 25297.96304161 .00001625 00000-0 68944-3 0 9999

TLE line 2: 2 60775 89.0720 304.7553 0027470 242.5404 117.2996 14.24763155 62439

Live tracking on map

Real-time ground track for satellite CZ-6A DEB.

In-orbit conjunctions

A list of the most updated potential collisions computed for object CZ-6A DEB.

Target Orbit TCA Probability of collision Miss distance Type
CZ-4 DEB SSO 2025-05-18 00:36:29 0.0001375909 317.0 (m) DEBRIS
CZ-6A DEB LEO 2025-01-03 23:07:09 0.000247104 433.0 (m) DEBRIS
CZ-6A DEB LEO 2024-11-11 12:00:00 0.0005106498 188.0 (m) DEBRIS

Associated space launch

18 Low Earth Orbit communication satellites with Ku, Q and V band payloads for the G60 constellation operated by Shanghai Spacecom Satellite Technology (SSST) with funding backed by the Shanghai local government. Initial constellation will consist of 1296 satellites by 2027 with long term plans to expand it to 12000 satellites.

CZ-6A DEB was lifted into orbit during the mission ‘Long March 6A | G60 Polar Group 01’, on board a Long March 6A space rocket.

The launch took place on Aug. 6, 2024, 6:42 a.m. from Launch Complex 9A.

For more information about the launch, click the button.

Launch to space Long March 6A | G60 Polar Group 01
Long March 6A | G60 Polar Group 01

Agency: N/A

Status: Launch Successful

Launch date: Aug. 6, 2024, 6:42 a.m. UTC

Rocket: Long March 6A

Launch pad: Launch Complex 9A

Location: Taiyuan Satellite Launch Center, People's Republic of China

...

Latest news about this satellite

News about space launch
Brightness of first Chinese broadband constellation satellites alarms astronomers

The first satellites of a Chinese broadband constellation are significantly brighter than those of Western systems, posing a new challenge for astronomers.

News about space launch
Chinese rocket stage breaks up into cloud of more than 700 pieces of space debris

HELSINKI — A Chinese Long March 6A rocket’s upper stage has fragmented into a cloud of over 700 pieces of space debris, adding to concerns about long-term orbital safety. China […]

News about space launch
China's Thousand Sails Megaconstellation Kicks Off with Dangerous Debris Field

China's Thousand Sails Megaconstellation Kicks Off with Dangerous Debris Field


Newsletter sign-up

Weekly statistics, charts and insights to help you stay on top of the space industry.